Chicago Executive, IL

11:04 PM CST on December 09, 2019 (GMT -0600)
Chicago Executive

Weather History for KPWK - September, 2019

Change the Weather History Date:

Sunday, September 8, 2019

  Actual Average Record
Temperature  
Mean Temperature 64 °F 68 °F  
Max Temperature 66 °F 77 °F 92 °F (2002)
Min Temperature 61 °F 58 °F 52 °F (2010)
Degree Days  
Heating Degree Days 2 1  
Month to date heating degree days 2 8  
Since 1 July heating degree days 2 18  
Cooling Degree Days 0 4  
Month to date cooling degree days 27 37  
Year to date cooling degree days 834 734  
Growing Degree Days 14 (Base 50)    
Moisture  
Dew Point 55 °F    
Average Humidity 72    
Maximum Humidity 80    
Minimum Humidity 65    
Precipitation  
Precipitation 0.04 in 0.11 in 0.60 in (2008)
Month to date precipitation 0.45 0.86  
Year to date precipitation 29.77 23.34  
Sea Level Pressure  
Sea Level Pressure 30.13 in    
Wind  
Wind Speed 3 mph ()    
Max Wind Speed 12 mph    
Max Gust Speed 15 mph    
Visibility 10.0 miles    
Events Rain    
T = Trace of Precipitation, MM = Missing Value Source: Averaged Metar Reports

Daily Weather History Graph

Daily Weather History Graph

Search for Another Location

Airport or City:

Astronomy

Sep. 08, 2019 Rise Set
Actual Time 6:24 AM CDT 7:13 PM CDT
Civil Twilight 5:55 AM CDT 7:42 PM CDT
Nautical Twilight 5:22 AM CDT 8:15 PM CDT
Astronomical Twilight 4:46 AM CDT 8:50 PM CDT
Moon 4:27 PM CDT (9/8) 12:58 AM CDT (9/8)
Length of Visible Light 13h 46m
Length of Day
12h 49m
Waxing Gibbous, 75% of the Moon is Illuminated
Sep 8
Waxing Gibbous
Sep 13
Full
Sep 21
Last Quarter
Sep 28
New
Oct 5
First Quarter

Hourly Weather History & Observations

Time (CDT) Temp. Dew Point Humidity Pressure Visibility Wind Dir Wind Speed Gust Speed Precip Events Conditions
12:52 AM 66.0 °F 57.9 °F 75% 30.06 in 10.0 mi Calm Calm - N/A   Overcast
1:52 AM 66.0 °F 55.9 °F 70% 30.06 in 10.0 mi Calm Calm - N/A   Overcast
2:52 AM 66.0 °F 55.9 °F 70% 30.06 in 10.0 mi Calm Calm - N/A   Overcast
3:52 AM 66.0 °F 55.9 °F 70% 30.06 in 10.0 mi Calm Calm - N/A   Overcast
4:52 AM 64.9 °F 55.9 °F 73% 30.07 in 10.0 mi NE 3.5 mph - N/A   Overcast
5:52 AM 64.9 °F 57.0 °F 75% 30.10 in 10.0 mi NE 4.6 mph - N/A   Overcast
6:52 AM 64.9 °F 57.0 °F 75% 30.11 in 10.0 mi East 5.8 mph - N/A   Overcast
7:01 AM 64.9 °F 57.0 °F 75% 30.12 in 10.0 mi East 3.5 mph - N/A   Overcast
7:24 AM 64.9 °F 55.9 °F 73% 30.11 in 10.0 mi East 6.9 mph - N/A   Overcast
7:52 AM 64.9 °F 55.9 °F 73% 30.11 in 10.0 mi ENE 6.9 mph - N/A   Overcast
8:52 AM 64.0 °F 57.9 °F 80% 30.13 in 10.0 mi East 4.6 mph - 0.00 in Rain Light Rain
9:52 AM 64.0 °F 57.9 °F 80% 30.12 in 10.0 mi ENE 9.2 mph - 0.02 in   Overcast
10:52 AM 64.0 °F 55.9 °F 75% 30.14 in 10.0 mi East 6.9 mph - N/A   Overcast
11:52 AM 64.0 °F 55.0 °F 73% 30.15 in 10.0 mi East 5.8 mph - 0.00 in Rain Light Rain
12:52 PM 63.0 °F 55.0 °F 75% 30.17 in 10.0 mi SE 6.9 mph - 0.02 in   Overcast
1:52 PM 64.0 °F 55.0 °F 73% 30.15 in 10.0 mi East 3.5 mph - N/A   Overcast
2:52 PM 64.9 °F 53.1 °F 65% 30.14 in 10.0 mi East 8.1 mph - N/A   Overcast
3:52 PM 64.9 °F 54.0 °F 68% 30.13 in 10.0 mi East 5.8 mph - N/A   Overcast
4:52 PM 64.9 °F 53.1 °F 65% 30.13 in 10.0 mi ENE 6.9 mph - N/A   Overcast
5:52 PM 64.9 °F 53.1 °F 65% 30.13 in 10.0 mi ENE 5.8 mph - N/A   Overcast
6:52 PM 64.0 °F 53.1 °F 67% 30.13 in 10.0 mi ENE 5.8 mph - N/A   Overcast
7:52 PM 64.0 °F 53.1 °F 67% 30.15 in 10.0 mi Calm Calm - N/A   Overcast
8:52 PM 64.0 °F 54.0 °F 70% 30.17 in 10.0 mi Calm Calm - N/A   Overcast
9:52 PM 63.0 °F 54.0 °F 72% 30.18 in 10.0 mi Calm Calm - N/A   Overcast
10:10 PM 63.0 °F 54.0 °F 72% 30.18 in 10.0 mi NE 3.5 mph - N/A   Overcast
10:52 PM 63.0 °F 55.0 °F 75% 30.18 in 10.0 mi NE 3.5 mph - N/A   Overcast
11:23 PM 63.0 °F 55.0 °F 75% 30.19 in 10.0 mi NNE 4.6 mph - N/A   Overcast
11:52 PM 63.0 °F 55.0 °F 75% 30.17 in 10.0 mi East 3.5 mph - N/A   Mostly Cloudy